{"data":{"norad_id":52830,"epoch":"2026-09-19T15:16:20.353152Z","epoch_age_seconds":141013,"freshness":"FRESH","line1":"1 52830U 22062A   26262.63634668  .00000237  00000+0  19416-4 0  9996","line2":"2 52830  53.1589 232.8531 0001292  91.9622 268.1528 15.31700049235202","mean_motion":15.31700049,"eccentricity":0.0001292,"inclination_deg":53.1589,"raan_deg":232.8531,"arg_perigee_deg":91.9622,"mean_anomaly_deg":268.1528,"bstar":1.9416e-5,"rev_number":23520,"period_min":94.013184953551,"perigee_km":469.85497427029,"apogee_km":471.62472404811,"semimajor_km":6848.8768491592,"source":"CELESTRAK","updated_at":"2026-09-20T09:00:40.110440Z"}}